WetterOnline ( https://www.wetteronline.de )

Wetter aktuell Werl

Aktuelles Wetter: Werl (84m)

6-stündlich | Neueste Meldungen
Ortszeit Temperatur Wetter
Di, 28.06. 20:00 23.1° C wolkenlos
Di, 28.06. 14:00 23.5° C leicht bewölkt
Di, 28.06. 8:00 15.6° C wolkenlos
Di, 28.06. 2:00 12.0° C wolkenlos
Mo, 27.06. 20:00 16.3° C bedeckt
Mo, 27.06. 14:00 19.6° C bedeckt
Mo, 27.06. 8:00 16.3° C bedeckt
Mo, 27.06. 2:00 16.1° C bedeckt
Ortszeit Temperatur Wetter
Di, 28.06. 23:00 18.5° C wolkig
Di, 28.06. 22:50 18.5° C wolkig
Di, 28.06. 22:40 18.0° C bedeckt
Di, 28.06. 22:30 17.6° C wolkig
Di, 28.06. 22:20 17.6° C wolkig
Di, 28.06. 22:10 18.0° C bedeckt
Di, 28.06. 22:00 19.0° C wolkig
Di, 28.06. 21:30 20.2° C wolkig
Di, 28.06. 21:00 21.6° C wolkenlos
Di, 28.06. 20:30 22.4° C fast wolkenlos
Di, 28.06. 20:00 23.1° C wolkenlos
Ortszeit Relative Feuchte Sichtweite
Di, 28.06. 20:00 46% 60 km
Di, 28.06. 14:00 41% 45 km
Di, 28.06. 8:00 74% 50 km
Di, 28.06. 2:00 95% 15 km
Mo, 27.06. 20:00 85% >70 km
Mo, 27.06. 14:00 82% 11 km
Mo, 27.06. 8:00 94% 7 km
Mo, 27.06. 2:00 96% 3.8 km
Ortszeit Relative Feuchte Sichtweite
Di, 28.06. 23:00 65% 55 km
Di, 28.06. 22:50 65% -
Di, 28.06. 22:40 69% -
Di, 28.06. 22:30 73% 65 km
Di, 28.06. 22:20 73% -
Di, 28.06. 22:10 68% -
Di, 28.06. 22:00 64% 65 km
Di, 28.06. 21:30 59% 65 km
Di, 28.06. 21:00 53% 65 km
Di, 28.06. 20:30 49% 65 km
Di, 28.06. 20:00 46% 60 km
Ortszeit Niederschlagsmenge Niederschlagsart
Di, 28.06. 20:00 0.0 l/m2 in 12 Std. -
Di, 28.06. 14:00 0.0 l/m2 in 6 Std. -
Di, 28.06. 8:00 0.0 l/m2 in 12 Std. -
Di, 28.06. 2:00 0.0 l/m2 in 6 Std. -
Mo, 27.06. 20:00 0.1 l/m2 in 12 Std. Regen
Mo, 27.06. 14:00 0.0 l/m2 in 6 Std. -
Mo, 27.06. 8:00 1 l/m2 in 12 Std. Regen
Mo, 27.06. 2:00 0.6 l/m2 in 6 Std. Regen
Ortszeit Niederschlagsmenge Niederschlagsart
Di, 28.06. 23:00 0.0 l/m2 in 1 Std. -
Di, 28.06. 22:50 keine Meldung -
Di, 28.06. 22:40 keine Meldung -
Di, 28.06. 22:30 0.0 l/m2 in 1 Std. -
Di, 28.06. 22:20 keine Meldung -
Di, 28.06. 22:10 keine Meldung -
Di, 28.06. 22:00 0.0 l/m2 in 1 Std. -
Di, 28.06. 21:30 0.0 l/m2 in 1 Std. -
Di, 28.06. 21:00 0.0 l/m2 in 1 Std. -
Di, 28.06. 20:30 0.0 l/m2 in 1 Std. -
Di, 28.06. 20:00 0.0 l/m2 in 1 Std. -
Ortszeit Stärke Spitze Richtung
km/h Bft. km/h Grad Sektor
Di, 28.06. 20:00 11 2 22 60° NO
Di, 28.06. 14:00 7 2 32 190° S
Di, 28.06. 8:00 6 1 11 200° S
Di, 28.06. 2:00 9 2 26 230° SW
Mo, 27.06. 20:00 11 2 54 250° W
Mo, 27.06. 14:00 11 2 24 270° W
Mo, 27.06. 8:00 4 1 22 290° W
Mo, 27.06. 2:00 0 0 11 - -
Ortszeit Stärke Spitze Richtung
km/h Bft. km/h Grad Sektor
Di, 28.06. 23:00 6 1 9 100° O
Di, 28.06. 22:50 6 1 - 100° O
Di, 28.06. 22:40 6 1 - 100° O
Di, 28.06. 22:30 4 1 11 90° O
Di, 28.06. 22:20 4 1 - 90° O
Di, 28.06. 22:10 7 2 - 40° NO
Di, 28.06. 22:00 7 2 11 30° NO
Di, 28.06. 21:30 7 2 11 30° NO
Di, 28.06. 21:00 7 2 19 30° NO
Di, 28.06. 20:30 11 2 18 50° NO
Di, 28.06. 20:00 11 2 22 60° NO
Ortszeit Untergrenze Bedeckung Gattung
total tief tief mittel hoch
Di, 28.06. 20:00 - 0/8 0/8 - - -
Di, 28.06. 14:00 1500 m 2/8 2/8 - - -
Di, 28.06. 8:00 - 0/8 0/8 - - -
Di, 28.06. 2:00 - 0/8 0/8 - - -
Mo, 27.06. 20:00 2700 m 8/8 8/8 - - -
Mo, 27.06. 14:00 480 m 8/8 8/8 - - -
Mo, 27.06. 8:00 150 m 8/8 8/8 - - -
Mo, 27.06. 2:00 3300 m 8/8 8/8 - - -
Ortszeit Bedeckungsgrad in Achtel und Wolkenuntergrenze
Di, 28.06. 23:00 7(9000m) 8(9000m)
Di, 28.06. 22:50 7(9000m) 8(9000m)
Di, 28.06. 22:40 8
Di, 28.06. 22:30 8(9000m)
Di, 28.06. 22:20 8(9000m)
Di, 28.06. 22:10 8
Di, 28.06. 22:00 8(9000m) 8(10500m)
Di, 28.06. 21:30 7(9000m)
Di, 28.06. 21:00 keine Wolken
Di, 28.06. 20:30 1(2100m)
Di, 28.06. 20:00 keine Wolken
Ortszeit Luftdruck NN (hPa) Tendenz (hPa in 3 Std.)
Di, 28.06. 20:00 1018 - 1,2
Di, 28.06. 14:00 1021 - 1,0
Di, 28.06. 8:00 1023 + 0,5
Di, 28.06. 2:00 1022 + 0,6
Mo, 27.06. 20:00 1019 + 1,9
Mo, 27.06. 14:00 1016 + 1,0
Mo, 27.06. 8:00 1015 + 0,8
Mo, 27.06. 2:00 1015 - 1,3
Ortszeit Luftdruck NN (hPa) Tendenz (hPa in 3 Std.)
Di, 28.06. 23:00 1018 - 0,2
Di, 28.06. 22:50 1018 keine Meldung
Di, 28.06. 22:40 1018 keine Meldung
Di, 28.06. 22:30 1018 - 0,4
Di, 28.06. 22:20 1018 keine Meldung
Di, 28.06. 22:10 1018 keine Meldung
Di, 28.06. 22:00 1018 - 0,7
Di, 28.06. 21:30 1018 - 0,8
Di, 28.06. 21:00 1018 - 1,0
Di, 28.06. 20:30 1018 - 0,8
Di, 28.06. 20:00 1018 - 1,2
Ortszeit Schneehöhe (cm)
Di, 28.06. 20:00 0
Di, 28.06. 14:00 0
Di, 28.06. 8:00 0
Di, 28.06. 2:00 0
Mo, 27.06. 20:00 0
Mo, 27.06. 14:00 0
Mo, 27.06. 8:00 0
Mo, 27.06. 2:00 0
Ortszeit Schneehöhe (cm)
Di, 28.06. 23:00 0
Di, 28.06. 22:50 0
Di, 28.06. 22:40 0
Di, 28.06. 22:30 0
Di, 28.06. 22:20 0
Di, 28.06. 22:10 0
Di, 28.06. 22:00 0
Di, 28.06. 21:30 0
Di, 28.06. 21:00 0
Di, 28.06. 20:30 0
Di, 28.06. 20:00 0
Link zu dieser Seite / Seite empfehlen

Das Wetter in ...